2003-01-01 01:00:00,2.9,306.5,0.1600,10.91,50
2003-01-01 02:00:00,4.6,309.9,0.0920,12.35,127
2003-01-01 03:00:00,4.2,299.1,0.1050,8.69,258
2003-01-01 04:00:00,5.4,301.4,0.0330,10.52,358
2003-01-01 05:00:00,6.1,304.4,0.0690,11.17,437
2003-01-01 06:00:00,7.4,301.9,0.0480,12.67,555
2003-01-01 07:00:00,9.1,305.7,0.0340,17.83,607
2003-01-01 08:00:00,9.5,304.8,0.0160,17.34,737
2003-01-01 09:00:00,9.5,302.5,0.0110,15.11,814
2003-01-01 10:00:00,9.7,307.7,0.0260,19.24,948
2003-01-01 11:00:00,8.9,306.5,0.0070,14.59,1008
2003-01-01 12:00:00,8.8,305.8,0.0000,14.72,1143
2003-01-01 13:00:00,8.5,305.0,0.0240,13.09,1203
2003-01-01 14:00:00,7.8,305.0,0.0410,13.93,1324
2003-01-01 15:00:00,7.8,306.5,0.0570,12.48,1455
2003-01-01 16:00:00,8.3,308.6,0.0270,14.57,1530
2003-01-01 17:00:00,6.8,311.5,0.0230,11.74,1649
2003-01-01 18:00:00,5.1,290.5,0.1360,9.65,1741
2003-01-01 19:00:00,3.7,300.1,0.1510,6.99,1843
2003-01-01 20:00:00,4.7,304.7,0.0930,10.03,1927
2003-01-01 21:00:00,5.1,303.1,0.0670,12.17,2022
2003-01-01 22:00:00,5.1,310.4,0.0730,10.39,2148
2003-01-01 23:00:00,5.6,299.5,0.0690,10.74,2212
2003-01-02 00:00:00,6.1,299.4,0.0700,10.04,2334
2003-01-02 01:00:00,5.5,281.7,0.1480,9.66,21
2003-01-02 02:00:00,5.7,292.9,0.1170,11.30,153
2003-01-02 03:00:00,5.5,291.1,0.1330,12.98,205
2003-01-02 04:00:00,5.3,296.3,0.1110,9.08,307
2003-01-02 05:00:00,6.0,301.1,0.0420,10.42,406
2003-01-02 06:00:00,5.2,308.2,0.0130,9.26,555
2003-01-02 07:00:00,4.6,320.5,0.0210,11.39,617
2003-01-02 08:00:00,4.6,318.2,0.0170,8.96,749
2003-01-02 09:00:00,6.4,321.8,0.0170,9.55,800
2003-01-02 10:00:00,5.3,322.9,0.0430,9.69,923
2003-01-02 11:00:00,4.1,305.9,0.0560,9.94,1003
2003-01-02 12:00:00,5.2,315.9,0.0420,9.73,1142
2003-01-02 13:00:00,5.5,315.3,0.0340,11.58,1226
2003-01-02 14:00:00,4.8,315.9,0.0880,11.65,1345
2003-01-02 15:00:00,3.3,312.5,0.1340,9.00,1401
2003-01-02 16:00:00,3.6,331.5,0.0620,7.95,1554
2003-01-02 17:00:00,3.5,317.8,0.0870,7.71,1604
2003-01-02 18:00:00,2.6,325.4,0.0990,7.68,1712
2003-01-02 19:00:00,1.1,163.7,0.2270,3.44,1818
2003-01-02 20:00:00,1.4,141.0,0.2310,4.46,1955
2003-01-02 21:00:00,2.1,148.9,0.1520,4.43,2017
2003-01-02 22:00:00,1.4,130.9,0.1600,3.56,2107
2003-01-02 23:00:00,2.0,129.4,0.1270,4.92,2235
2003-01-03 00:00:00,2.3,133.3,0.1340,6.02,2342
2003-01-03 01:00:00,2.3,142.6,0.0700,5.21,59
2003-01-03 02:00:00,2.6,147.0,0.0810,6.92,104
2003-01-03 03:00:00,2.1,140.9,0.0920,4.39,222
2003-01-03 04:00:00,0.9,17.7,0.1110,2.16,333
2003-01-03 05:00:00,1.5,23.1,0.1730,3.13,444
2003-01-03 06:00:00,1.9,351.5,0.1180,3.37,550
2003-01-03 07:00:00,1.5,347.1,0.0980,3.39,629
2003-01-03 08:00:00,1.3,6.5,0.1400,3.13,737
2003-01-03 09:00:00,1.9,340.2,0.0830,3.11,856
2003-01-03 10:00:00,2.2,334.7,0.0100,2.92,904
2003-01-03 11:00:00,2.2,330.6,0.0390,4.40,1036
2003-01-03 12:00:00,1.4,353.8,0.1140,3.12,1147
2003-01-03 13:00:00,1.6,334.5,0.0720,3.44,1226
2003-01-03 14:00:00,1.7,341.4,0.0430,3.19,1337
2003-01-03 15:00:00,2.0,341.1,0.0660,3.80,1443
2003-01-03 16:00:00,1.9,334.1,0.0250,3.43,1551
2003-01-03 17:00:00,1.6,336.4,0.0440,3.86,1609
2003-01-03 18:00:00,1.5,345.4,0.0640,3.82,1748
2003-01-03 19:00:00,1.7,338.6,0.0530,3.32,1844
2003-01-03 20:00:00,1.6,343.3,0.0880,3.46,1924
2003-01-03 21:00:00,1.5,337.1,0.0710,3.08,2017
2003-01-03 22:00:00,1.9,338.7,0.0700,3.82,2103
2003-01-03 23:00:00,1.7,341.2,0.0530,4.83,2239
2003-01-04 00:00:00,1.7,335.8,0.0400,3.22,2339
2003-01-04 01:00:00,1.8,347.6,0.0770,3.11,30
2003-01-04 02:00:00,1.7,339.2,0.0370,2.99,144
2003-01-04 03:00:00,1.7,359.3,0.1310,3.71,248
2003-01-04 04:00:00,1.7,344.7,0.0550,3.46,309
2003-01-04 05:00:00,1.5,338.1,0.0510,3.54,423
2003-01-04 06:00:00,1.6,337.4,0.0430,3.29,543
2003-01-04 07:00:00,1.4,340.4,0.0680,2.86,612
2003-01-04 08:00:00,1.6,341.5,0.0560,2.95,740
2003-01-04 09:00:00,1.2,343.6,0.0840,2.58,850
2003-01-04 10:00:00,2.1,334.5,0.0200,3.75,933
2003-01-04 11:00:00,1.3,344.8,0.0650,2.63,1011
2003-01-04 12:00:00,1.5,335.2,0.0550,3.34,1132
2003-01-04 13:00:00,1.6,333.0,0.0300,3.28,1216
2003-01-04 14:00:00,1.4,343.3,0.0490,2.37,1353
2003-01-04 15:00:00,1.0,77.0,0.0350,2.58,1408
2003-01-04 16:00:00,2.0,331.1,0.0140,3.14,1519
2003-01-04 17:00:00,1.0,14.7,0.1040,2.78,1608
2003-01-04 18:00:00,1.0,343.3,0.0800,2.38,1744
2003-01-04 19:00:00,1.3,340.1,0.0710,2.64,1815
2003-01-04 20:00:00,1.7,347.3,0.1020,3.82,1933
2003-01-04 21:00:00,1.0,18.5,0.0960,3.28,2001
2003-01-04 22:00:00,1.7,344.5,0.0770,2.73,2111
2003-01-04 23:00:00,1.2,348.5,0.0670,2.94,2235
2003-01-05 00:00:00,1.2,341.8,0.0650,3.74,2355
2003-01-05 01:00:00,2.4,331.4,0.0100,3.88,25
2003-01-05 02:00:00,1.5,344.1,0.0800,2.98,118
2003-01-05 03:00:00,0.7,354.5,0.1080,1.82,224
2003-01-05 04:00:00,1.3,339.6,0.0530,3.11,306
2003-01-05 05:00:00,1.2,341.8,0.0580,3.16,402
2003-01-05 06:00:00,1.4,348.5,0.0540,3.44,545
2003-01-05 07:00:00,1.3,351.6,0.0810,3.88,641
2003-01-05 08:00:00,1.7,345.1,0.0950,3.40,743
2003-01-05 09:00:00,1.4,343.0,0.0880,2.91,834
2003-01-05 10:00:00,1.8,342.4,0.0510,3.30,904
2003-01-05 11:00:00,1.8,347.4,0.0810,4.57,1016
2003-01-05 12:00:00,2.1,341.7,0.0180,3.58,1144
2003-01-05 13:00:00,1.4,352.6,0.0690,3.21,1201
2003-01-05 14:00:00,1.5,345.2,0.0940,4.37,1310
2003-01-05 15:00:00,1.8,335.0,0.0360,3.74,1410
2003-01-05 16:00:00,1.6,346.7,0.0670,3.10,1515
2003-01-05 17:00:00,1.9,339.2,0.0670,3.71,1638
2003-01-05 18:00:00,2.0,345.2,0.0830,3.95,1750
2003-01-05 19:00:00,2.2,344.5,0.0720,4.12,1841
2003-01-05 20:00:00,1.9,350.6,0.0860,3.37,1955
2003-01-05 21:00:00,2.0,356.1,0.0940,4.40,2028
2003-01-05 22:00:00,1.6,339.9,0.0720,3.94,2158
2003-01-05 23:00:00,1.9,344.0,0.0690,4.22,2214
2003-01-06 00:00:00,2.1,341.7,0.0670,4.85,2319
2003-01-06 01:00:00,2.1,338.9,0.0760,4.49,56
2003-01-06 02:00:00,1.8,344.8,0.0750,4.21,138
2003-01-06 03:00:00,2.0,344.9,0.0830,4.31,257
2003-01-06 04:00:00,2.1,344.1,0.0720,4.11,347
2003-01-06 05:00:00,1.2,12.3,0.1220,3.16,449
2003-01-06 06:00:00,1.9,342.2,0.0740,4.17,554
2003-01-06 07:00:00,2.0,345.4,0.0790,3.57,638
2003-01-06 08:00:00,2.1,337.9,0.0390,3.93,728
2003-01-06 09:00:00,2.8,334.2,0.0170,4.51,800
2003-01-06 10:00:00,1.5,2.2,0.0850,3.87,922
2003-01-06 11:00:00,2.3,343.7,0.0840,4.34,1049
2003-01-06 12:00:00,1.4,19.8,0.1950,4.67,1106
2003-01-06 13:00:00,1.4,350.4,0.1100,3.06,1224
2003-01-06 14:00:00,1.0,32.8,0.1540,3.90,1355
2003-01-06 15:00:00,1.4,50.7,0.1670,3.59,1414
2003-01-06 16:00:00,2.3,132.2,0.1690,6.59,1538
2003-01-06 17:00:00,2.6,200.5,0.2040,8.66,1639
2003-01-06 18:00:00,3.4,279.0,0.1730,8.82,1714
2003-01-06 19:00:00,5.4,308.9,0.1220,15.53,1824
2003-01-06 20:00:00,7.5,313.5,0.0610,13.73,1956
2003-01-06 21:00:00,7.9,306.3,0.0650,14.50,2025
2003-01-06 22:00:00,8.1,304.4,0.0330,14.97,2131
2003-01-06 23:00:00,8.6,305.6,0.0150,15.62,2240
2003-01-07 00:00:00,7.8,304.7,0.0260,12.97,2345
2003-01-07 01:00:00,7.5,307.7,0.0630,14.66,50
2003-01-07 02:00:00,7.4,307.1,0.0580,16.60,119
2003-01-07 03:00:00,9.1,305.9,0.0560,17.42,230
2003-01-07 04:00:00,9.2,308.1,0.0710,16.18,312
2003-01-07 05:00:00,8.6,303.3,0.0030,13.34,415
2003-01-07 06:00:00,9.4,302.8,0.0200,16.31,545
2003-01-07 07:00:00,7.7,305.4,0.0510,13.37,620
2003-01-07 08:00:00,7.9,304.2,0.0410,15.84,754
2003-01-07 09:00:00,8.9,304.4,0.0320,15.79,845
2003-01-07 10:00:00,7.6,303.4,0.0750,18.37,925
2003-01-07 11:00:00,7.8,303.9,0.0920,19.45,1039
2003-01-07 12:00:00,7.8,301.1,0.1100,17.07,1151
2003-01-07 13:00:00,9.1,301.3,0.0690,16.90,1212
2003-01-07 14:00:00,9.7,302.9,0.0350,15.81,1311
2003-01-07 15:00:00,8.3,306.3,0.0540,15.85,1424
2003-01-07 16:00:00,5.1,307.0,0.0820,12.76,1504
2003-01-07 17:00:00,3.1,253.7,0.2750,8.00,1617
2003-01-07 18:00:00,3.7,291.0,0.1220,9.28,1720
2003-01-07 19:00:00,2.4,153.3,0.2230,6.28,1803
2003-01-07 20:00:00,2.8,217.7,0.1550,7.66,1914
2003-01-07 21:00:00,3.1,133.9,0.0740,8.55,2055
2003-01-07 22:00:00,3.0,145.2,0.0630,5.73,2102
2003-01-07 23:00:00,2.9,179.0,0.1770,8.72,2230
2003-01-08 00:00:00,3.7,5.5,0.1080,9.92,2328
2003-01-08 01:00:00,4.2,340.4,0.1170,12.78,15
2003-01-08 02:00:00,5.9,351.5,0.0860,13.25,124
2003-01-08 03:00:00,5.1,9.4,0.1420,15.77,258
2003-01-08 04:00:00,5.9,15.1,0.1380,13.19,308
2003-01-08 05:00:00,5.2,17.6,0.1440,18.75,454
2003-01-08 06:00:00,9.1,333.5,0.0810,29.60,542
2003-01-08 07:00:00,7.6,303.6,0.0760,14.46,600
2003-01-08 08:00:00,7.4,305.6,0.0890,13.56,757
2003-01-08 09:00:00,7.3,304.6,0.0660,14.71,828
2003-01-08 10:00:00,6.1,301.1,0.1130,16.66,901
2003-01-08 11:00:00,6.5,299.6,0.1150,16.03,1018
2003-01-08 12:00:00,5.7,294.5,0.1360,11.21,1153
2003-01-08 13:00:00,7.2,302.0,0.0320,13.55,1235
2003-01-08 14:00:00,8.6,303.9,0.0220,14.45,1312
2003-01-08 15:00:00,7.7,304.0,0.0270,12.47,1401
2003-01-08 16:00:00,6.7,302.2,0.0730,10.90,1510
2003-01-08 17:00:00,6.5,314.1,0.0840,13.85,1632
2003-01-08 18:00:00,4.4,320.2,0.1020,10.49,1703
2003-01-08 19:00:00,4.7,336.6,0.1120,12.83,1836
2003-01-08 20:00:00,5.5,322.4,0.0390,13.27,1927
2003-01-08 21:00:00,4.6,329.1,0.0230,10.21,2055
2003-01-08 22:00:00,4.6,338.6,0.0670,7.84,2159
2003-01-08 23:00:00,4.5,322.9,0.0630,7.40,2211
2003-01-09 00:00:00,4.4,320.7,0.0040,7.46,2336
2003-01-09 01:00:00,5.1,312.7,0.0000,8.29,11
2003-01-09 02:00:00,1.0,350.0,0.1630,3.43,100
2003-01-09 03:00:00,4.6,328.7,0.0490,9.42,238
2003-01-09 04:00:00,3.4,33.3,0.1830,11.78,356
2003-01-09 05:00:00,4.2,359.8,0.1490,8.36,411
2003-01-09 06:00:00,4.7,16.8,0.1490,9.68,501
2003-01-09 07:00:00,5.4,310.9,0.0420,10.26,612
2003-01-09 08:00:00,4.3,296.8,0.1180,7.66,755
2003-01-09 09:00:00,2.5,354.7,0.1360,6.84,829
2003-01-09 10:00:00,2.8,254.7,0.2900,10.14,903
2003-01-09 11:00:00,2.5,213.0,0.2870,7.86,1008
2003-01-09 12:00:00,2.5,357.1,0.1240,6.84,1134
2003-01-09 13:00:00,1.5,122.2,0.2070,3.91,1210
2003-01-09 14:00:00,1.5,334.2,0.2330,3.69,1347
2003-01-09 15:00:00,1.6,266.5,0.2070,4.99,1459
2003-01-09 16:00:00,1.8,0.6,0.2540,4.73,1520
2003-01-09 17:00:00,2.8,43.7,0.1880,6.13,1631
2003-01-09 18:00:00,1.8,6.8,0.1210,3.06,1747
2003-01-09 19:00:00,1.7,348.7,0.1050,3.25,1824
2003-01-09 20:00:00,1.2,22.6,0.1130,3.21,1958
2003-01-09 21:00:00,2.2,339.2,0.0340,3.19,2053
2003-01-09 22:00:00,2.2,349.4,0.0960,3.40,2146
2003-01-09 23:00:00,1.6,349.7,0.0870,2.57,2215
2003-01-10 00:00:00,1.7,346.4,0.0780,3.24,2311
2003-01-10 01:00:00,2.2,338.7,0.0240,3.27,58
2003-01-10 02:00:00,2.4,338.6,0.0230,3.58,108
2003-01-10 03:00:00,1.9,349.5,0.0740,2.77,226
2003-01-10 04:00:00,2.1,346.6,0.0420,2.97,321
2003-01-10 05:00:00,1.8,350.2,0.0800,2.87,450
2003-01-10 06:00:00,2.0,337.4,0.0340,3.11,550
2003-01-10 07:00:00,2.1,345.2,0.0750,3.56,615
2003-01-10 08:00:00,1.7,347.8,0.1020,3.60,758
2003-01-10 09:00:00,2.1,343.3,0.0800,3.50,809
2003-01-10 10:00:00,2.0,335.6,0.0410,3.63,956
2003-01-10 11:00:00,2.1,341.3,0.0680,4.53,1017
2003-01-10 12:00:00,1.9,340.8,0.0880,4.56,1132
2003-01-10 13:00:00,1.3,358.9,0.1400,3.06,1216
2003-01-10 14:00:00,1.1,20.4,0.1730,3.50,1341
2003-01-10 15:00:00,1.6,73.6,0.1600,3.79,1440
2003-01-10 16:00:00,1.4,92.5,0.1760,6.69,1502
2003-01-10 17:00:00,1.3,99.9,0.2430,5.10,1649
2003-01-10 18:00:00,2.7,327.8,0.1830,12.79,1759
2003-01-10 19:00:00,8.1,288.2,0.1440,12.01,1820
2003-01-10 20:00:00,5.8,316.4,0.0800,12.57,1926
2003-01-10 21:00:00,3.4,150.1,0.1540,10.12,2044
2003-01-10 22:00:00,0.7,120.4,0.2040,2.36,2130
2003-01-10 23:00:00,2.9,130.5,0.1610,10.73,2250
2003-01-11 00:00:00,8.7,324.1,0.0140,15.15,2338
2003-01-11 01:00:00,8.6,314.9,0.0620,16.11,43
2003-01-11 02:00:00,9.5,324.0,0.0240,19.00,142
2003-01-11 03:00:00,8.6,328.2,0.0440,21.41,255
2003-01-11 04:00:00,8.0,342.9,0.0600,16.57,302
2003-01-11 05:00:00,8.3,324.5,0.0640,21.71,423
2003-01-11 06:00:00,7.5,337.7,0.0810,19.35,534
2003-01-11 07:00:00,7.1,336.5,0.0860,17.90,606
2003-01-11 08:00:00,7.2,331.4,0.1030,19.95,726
2003-01-11 09:00:00,7.4,322.8,0.0490,15.47,806
2003-01-11 10:00:00,6.9,328.6,0.1010,17.21,913
2003-01-11 11:00:00,6.9,309.2,0.0650,13.39,1003
2003-01-11 12:00:00,7.5,317.6,0.0750,15.20,1104
2003-01-11 13:00:00,7.3,299.7,0.1000,20.61,1238
2003-01-11 14:00:00,6.7,296.8,0.1290,15.12,1334
2003-01-11 15:00:00,4.3,282.6,0.1560,8.32,1408
2003-01-11 16:00:00,2.3,333.6,0.1080,6.28,1514
2003-01-11 17:00:00,2.6,350.0,0.1190,7.74,1657
2003-01-11 18:00:00,5.6,292.5,0.1310,12.47,1721
2003-01-11 19:00:00,4.8,290.7,0.2060,11.82,1849
2003-01-11 20:00:00,2.5,323.7,0.1770,6.73,1949
2003-01-11 21:00:00,3.4,342.6,0.1760,8.45,2052
2003-01-11 22:00:00,5.2,281.8,0.1820,11.96,2122
2003-01-11 23:00:00,5.8,299.8,0.0700,9.64,2225
2003-01-12 00:00:00,4.0,295.7,0.0420,7.28,2335
2003-01-12 01:00:00,4.2,294.1,0.1250,11.20,34
2003-01-12 02:00:00,3.3,293.7,0.1670,9.65,103
2003-01-12 03:00:00,2.0,237.8,0.2340,5.93,257
2003-01-12 04:00:00,3.1,293.0,0.1140,6.98,308
2003-01-12 05:00:00,1.2,135.6,0.1160,3.39,400
2003-01-12 06:00:00,1.7,20.9,0.1330,3.47,544
2003-01-12 07:00:00,1.7,347.5,0.0820,2.83,644
2003-01-12 08:00:00,2.4,336.9,0.0640,4.36,745
2003-01-12 09:00:00,2.0,354.4,0.1000,4.26,831
2003-01-12 10:00:00,1.4,351.8,0.1100,3.32,926
2003-01-12 11:00:00,0.6,300.1,0.2180,1.65,1030
2003-01-12 12:00:00,0.6,74.5,0.2060,1.64,1149
2003-01-12 13:00:00,0.7,355.5,0.1230,1.85,1300
2003-01-12 14:00:00,0.9,341.1,0.1480,3.03,1358
2003-01-12 15:00:00,3.9,350.7,0.1530,14.25,1451
2003-01-12 16:00:00,7.1,359.3,0.1230,15.43,1517
2003-01-12 17:00:00,5.8,347.7,0.0960,16.74,1648
2003-01-12 18:00:00,6.9,341.3,0.1060,19.34,1753
2003-01-12 19:00:00,5.8,333.4,0.1400,18.28,1802
2003-01-12 20:00:00,6.0,321.9,0.0910,19.24,1955
2003-01-12 21:00:00,7.8,310.4,0.0750,16.57,2027
2003-01-12 22:00:00,6.9,304.0,0.1110,14.38,2108
2003-01-12 23:00:00,6.2,304.2,0.0590,11.03,2204
2003-01-13 00:00:00,6.0,298.5,0.0890,13.12,2319
2003-01-13 01:00:00,6.8,298.6,0.1040,13.73,27
2003-01-13 02:00:00,6.3,297.5,0.0830,15.78,102
2003-01-13 03:00:00,8.0,296.4,0.1040,16.74,234
2003-01-13 04:00:00,8.7,297.0,0.0940,17.42,332
2003-01-13 05:00:00,8.4,282.4,0.2000,16.38,500
2003-01-13 06:00:00,7.4,286.9,0.1980,21.00,524
2003-01-13 07:00:00,5.3,307.1,0.1450,13.41,600
2003-01-13 08:00:00,8.3,294.8,0.1040,16.84,728
2003-01-13 09:00:00,6.4,291.4,0.1600,15.01,849
2003-01-13 10:00:00,7.6,292.4,0.1460,15.96,909
2003-01-13 11:00:00,9.7,292.6,0.1210,19.79,1017
2003-01-13 12:00:00,10.7,293.6,0.1010,22.73,1114
2003-01-13 13:00:00,11.4,296.5,0.0730,19.17,1215
2003-01-13 14:00:00,10.2,298.6,0.0610,17.80,1302
2003-01-13 15:00:00,10.4,298.4,0.0600,17.87,1431
2003-01-13 16:00:00,13.6,297.5,0.0310,21.50,1545
2003-01-13 17:00:00,14.4,300.6,0.0310,21.61,1610
2003-01-13 18:00:00,13.7,303.6,0.0210,22.21,1745
2003-01-13 19:00:00,11.7,303.2,0.0660,21.68,1855
2003-01-13 20:00:00,11.3,308.9,0.0470,19.53,1911
2003-01-13 21:00:00,12.0,313.3,0.0420,20.43,2011
2003-01-13 22:00:00,11.9,309.2,0.0420,21.74,2157
2003-01-13 23:00:00,12.4,309.4,0.0240,20.53,2230
2003-01-14 00:00:00,10.6,310.4,0.0300,20.08,2348
2003-01-14 01:00:00,7.1,298.2,0.1390,19.42,2
2003-01-14 02:00:00,4.5,293.4,0.1470,10.55,153
2003-01-14 03:00:00,3.5,333.1,0.1250,10.31,205
2003-01-14 04:00:00,2.9,47.7,0.1190,5.10,302
2003-01-14 05:00:00,1.8,8.0,0.1090,3.38,420
2003-01-14 06:00:00,1.7,14.5,0.1470,3.12,503
2003-01-14 07:00:00,1.7,358.6,0.0870,3.70,647
2003-01-14 08:00:00,2.4,347.3,0.0930,4.00,756
2003-01-14 09:00:00,1.5,8.4,0.1280,3.62,820
2003-01-14 10:00:00,2.2,339.1,0.0180,3.31,922
2003-01-14 11:00:00,1.6,344.0,0.0430,2.57,1015
2003-01-14 12:00:00,1.1,350.0,0.1210,2.59,1155
2003-01-14 13:00:00,1.0,11.1,0.1170,1.82,1240
2003-01-14 14:00:00,1.5,337.1,0.0670,2.39,1330
2003-01-14 15:00:00,2.2,326.1,0.0030,3.67,1446
2003-01-14 16:00:00,2.3,331.3,0.0420,3.63,1510
2003-01-14 17:00:00,1.5,351.8,0.0740,2.64,1601
2003-01-14 18:00:00,1.9,344.1,0.0530,3.32,1740
2003-01-14 19:00:00,1.9,350.6,0.0950,4.05,1845
2003-01-14 20:00:00,2.6,353.7,0.1040,4.33,1936
2003-01-14 21:00:00,1.5,4.6,0.1420,3.11,2001
2003-01-14 22:00:00,2.7,343.1,0.1360,6.68,2154
2003-01-14 23:00:00,2.6,347.3,0.1030,7.39,2202
2003-01-15 00:00:00,0.9,49.5,0.1900,2.71,2307
2003-01-15 01:00:00,1.0,10.4,0.1580,3.08,34
2003-01-15 02:00:00,1.7,1.6,0.1170,3.15,157
2003-01-15 03:00:00,2.3,351.5,0.0720,3.21,239
2003-01-15 04:00:00,2.9,345.0,0.0370,4.17,330
2003-01-15 05:00:00,2.3,345.3,0.0540,4.08,417
2003-01-15 06:00:00,1.7,350.6,0.0840,2.86,500
2003-01-15 07:00:00,1.5,335.9,0.0950,3.32,644
2003-01-15 08:00:00,0.9,350.1,0.1110,2.08,702
2003-01-15 09:00:00,1.2,354.3,0.1020,2.78,832
2003-01-15 10:00:00,1.5,76.7,0.1180,3.55,954
2003-01-15 11:00:00,1.2,351.0,0.0410,2.67,1059
2003-01-15 12:00:00,1.7,321.8,0.0390,2.76,1119
2003-01-15 13:00:00,1.0,335.2,0.0730,1.83,1256
2003-01-15 14:00:00,0.8,353.4,0.1070,1.84,1302
2003-01-15 15:00:00,1.1,127.9,0.1730,3.90,1446
2003-01-15 16:00:00,1.0,160.9,0.2080,2.91,1532
2003-01-15 17:00:00,1.2,29.3,0.1280,3.47,1647
2003-01-15 18:00:00,1.9,12.6,0.1230,4.01,1722
2003-01-15 19:00:00,0.6,33.5,0.1190,1.65,1800
2003-01-15 20:00:00,1.3,350.1,0.1090,2.62,1947
2003-01-15 21:00:00,1.3,86.2,0.1530,3.97,2010
2003-01-15 22:00:00,1.2,5.7,0.1140,2.65,2124
2003-01-15 23:00:00,5.5,307.7,0.0990,11.07,2240
2003-01-16 00:00:00,8.0,295.5,0.0560,13.03,2336
2003-01-16 01:00:00,6.5,291.1,0.0850,10.23,22
2003-01-16 02:00:00,6.3,292.4,0.0620,11.62,104
2003-01-16 03:00:00,5.5,296.7,0.0650,9.74,244
2003-01-16 04:00:00,5.5,312.3,0.0840,14.90,356
2003-01-16 05:00:00,7.7,327.9,0.0440,16.06,429
2003-01-16 06:00:00,7.9,313.7,0.0720,15.14,528
2003-01-16 07:00:00,7.9,312.5,0.0570,15.82,615
2003-01-16 08:00:00,11.0,312.8,0.0200,18.58,752
2003-01-16 09:00:00,10.2,317.1,0.0440,19.94,828
2003-01-16 10:00:00,10.1,325.2,0.0140,19.97,919
2003-01-16 11:00:00,6.5,348.1,0.1050,17.17,1024
2003-01-16 12:00:00,6.4,0.5,0.1140,17.94,1108
2003-01-16 13:00:00,8.0,347.0,0.1150,19.65,1238
2003-01-16 14:00:00,8.6,348.8,0.1350,24.67,1358
2003-01-16 15:00:00,10.2,340.0,0.1240,28.13,1445
2003-01-16 16:00:00,9.8,322.7,0.1440,26.14,1544
2003-01-16 17:00:00,7.3,318.4,0.1430,17.36,1609
2003-01-16 18:00:00,8.5,317.6,0.1110,19.84,1744
2003-01-16 19:00:00,9.6,316.6,0.1040,21.95,1857
2003-01-16 20:00:00,10.8,310.0,0.0760,21.73,1952
2003-01-16 21:00:00,13.4,307.9,0.0350,22.29,2040
2003-01-16 22:00:00,11.1,301.9,0.0760,18.95,2114
2003-01-16 23:00:00,10.1,307.3,0.0720,22.83,2235
2003-01-17 00:00:00,9.3,313.5,0.0370,22.05,2349
2003-01-17 01:00:00,8.4,316.6,0.0830,18.26,4
2003-01-17 02:00:00,7.8,317.5,0.0490,14.92,144
2003-01-17 03:00:00,6.7,323.8,0.0400,13.50,211
2003-01-17 04:00:00,4.8,346.9,0.1010,14.34,315
2003-01-17 05:00:00,3.1,16.1,0.1440,8.35,403
2003-01-17 06:00:00,2.5,23.1,0.1940,7.79,530
2003-01-17 07:00:00,4.0,356.0,0.0960,7.98,605
2003-01-17 08:00:00,2.8,327.6,0.0710,5.47,734
2003-01-17 09:00:00,1.2,137.1,0.1380,2.84,816
2003-01-17 10:00:00,1.2,27.0,0.1470,2.76,953
2003-01-17 11:00:00,2.1,349.3,0.1060,3.72,1018
2003-01-17 12:00:00,1.2,341.2,0.0790,2.29,1100
2003-01-17 13:00:00,1.6,337.1,0.0770,2.47,1250
2003-01-17 14:00:00,1.0,348.6,0.0910,2.72,1342
2003-01-17 15:00:00,0.7,347.9,0.1030,1.81,1402
2003-01-17 16:00:00,1.1,151.9,0.1170,4.08,1541
2003-01-17 17:00:00,2.5,170.6,0.1750,4.67,1649
2003-01-17 18:00:00,3.0,179.3,0.2000,5.39,1749
2003-01-17 19:00:00,1.9,171.9,0.1500,4.13,1812
2003-01-17 20:00:00,1.2,31.2,0.1320,2.53,1951
2003-01-17 21:00:00,1.1,326.7,0.1560,3.15,2035
2003-01-17 22:00:00,1.1,304.8,0.1030,2.09,2136
2003-01-17 23:00:00,1.7,214.5,0.0640,3.07,2235
2003-01-18 00:00:00,1.2,326.6,0.0000,2.03,2344
2003-01-18 01:00:00,1.1,150.4,0.0930,3.46,53
2003-01-18 02:00:00,1.3,330.8,0.1090,2.92,119
2003-01-18 03:00:00,0.9,58.7,0.1950,2.64,200
2003-01-18 04:00:00,1.3,11.7,0.1160,2.88,359
2003-01-18 05:00:00,1.3,296.5,0.1980,3.21,440
2003-01-18 06:00:00,1.4,327.6,0.1000,2.78,518
2003-01-18 07:00:00,1.2,148.8,0.2170,3.05,616
2003-01-18 08:00:00,0.7,160.3,0.1480,2.32,711
2003-01-18 09:00:00,0.8,50.5,0.1880,2.61,832
2003-01-18 10:00:00,0.9,41.7,0.1230,2.13,948
2003-01-18 11:00:00,1.1,335.0,0.1740,2.37,1046
2003-01-18 12:00:00,1.1,147.9,0.1170,2.85,1200
2003-01-18 13:00:00,1.2,165.2,0.1780,3.52,1254
2003-01-18 14:00:00,0.9,180.6,0.1740,2.76,1348
2003-01-18 15:00:00,1.1,150.4,0.0000,1.95,1436
2003-01-18 16:00:00,0.8,146.1,0.0040,1.89,1528
2003-01-18 17:00:00,0.9,345.7,0.0000,2.05,1630
2003-01-18 18:00:00,1.4,338.9,0.0000,1.97,1759
2003-01-18 19:00:00,0.6,356.9,0.1060,2.01,1804
2003-01-18 20:00:00,0.9,131.8,0.0630,1.97,1936
2003-01-18 21:00:00,0.8,146.0,0.0070,2.11,2048
2003-01-18 22:00:00,1.2,359.5,0.2060,3.87,2159
2003-01-18 23:00:00,5.7,52.7,0.1990,10.22,2252
2003-01-19 00:00:00,6.9,50.9,0.2140,11.64,2313
2003-01-19 01:00:00,5.6,40.8,0.2030,11.15,54
2003-01-19 02:00:00,5.0,43.5,0.1790,11.15,133
2003-01-19 03:00:00,3.7,115.1,0.1960,12.72,204
2003-01-19 04:00:00,3.6,317.9,0.1810,13.92,359
2003-01-19 05:00:00,6.9,320.0,0.0930,17.61,425
2003-01-19 06:00:00,9.4,324.8,0.0100,15.28,530
2003-01-19 07:00:00,9.5,324.9,0.0050,14.07,647
2003-01-19 08:00:00,8.5,320.3,0.0250,14.77,743
2003-01-19 09:00:00,7.7,310.4,0.0620,16.20,834
2003-01-19 10:00:00,8.2,304.4,0.0670,16.26,919
2003-01-19 11:00:00,6.7,298.7,0.0760,11.79,1003
2003-01-19 12:00:00,4.7,316.1,0.0410,11.78,1101
2003-01-19 13:00:00,4.6,324.7,0.0490,9.23,1254
2003-01-19 14:00:00,5.4,317.3,0.0450,8.93,1313
2003-01-19 15:00:00,5.9,309.6,0.0680,11.65,1430
2003-01-19 16:00:00,6.1,323.2,0.0230,9.68,1508
2003-01-19 17:00:00,4.9,334.5,0.0380,9.79,1602
2003-01-19 18:00:00,4.6,330.9,0.0060,8.67,1710
2003-01-19 19:00:00,3.6,334.4,0.0470,5.67,1825
2003-01-19 20:00:00,1.3,6.6,0.1250,3.17,1905
2003-01-19 21:00:00,1.8,351.5,0.1100,3.36,2012
2003-01-19 22:00:00,1.1,22.2,0.1590,2.48,2156
2003-01-19 23:00:00,1.5,17.2,0.1300,4.11,2237
2003-01-20 00:00:00,2.2,346.5,0.0690,4.59,2356
2003-01-20 01:00:00,2.3,336.9,0.0780,4.02,47
2003-01-20 02:00:00,1.6,24.4,0.0880,3.63,156
2003-01-20 03:00:00,1.7,354.2,0.1020,4.70,256
2003-01-20 04:00:00,2.3,342.2,0.0680,3.83,308
2003-01-20 05:00:00,2.2,340.5,0.0850,5.03,427
2003-01-20 06:00:00,2.1,342.3,0.0740,3.69,553
2003-01-20 07:00:00,2.3,346.1,0.0850,3.63,617
2003-01-20 08:00:00,1.9,351.4,0.1150,3.64,717
2003-01-20 09:00:00,2.2,340.1,0.0580,4.21,816
2003-01-20 10:00:00,2.1,348.6,0.0860,4.31,951
2003-01-20 11:00:00,1.5,100.9,0.1070,3.75,1051
2003-01-20 12:00:00,3.5,132.1,0.0430,7.24,1152
2003-01-20 13:00:00,4.8,134.2,0.0000,9.15,1256
2003-01-20 14:00:00,6.2,144.9,0.0000,9.68,1345
2003-01-20 15:00:00,4.9,145.3,0.0260,9.16,1449
2003-01-20 16:00:00,6.6,149.3,0.0310,9.84,1554
2003-01-20 17:00:00,7.3,160.2,0.0800,11.18,1613
2003-01-20 18:00:00,7.1,146.5,0.0190,10.47,1732
2003-01-20 19:00:00,6.3,142.5,0.0340,12.73,1817
2003-01-20 20:00:00,3.8,142.5,0.0590,6.54,1929
2003-01-20 21:00:00,3.7,154.3,0.0850,6.59,2040
2003-01-20 22:00:00,1.8,115.0,0.2220,6.53,2141
2003-01-20 23:00:00,1.6,154.8,0.1590,5.23,2206
2003-01-21 00:00:00,2.0,163.5,0.1390,4.42,2338
2003-01-21 01:00:00,0.7,143.4,0.1620,2.00,21
2003-01-21 02:00:00,1.2,167.5,0.1890,2.82,122
2003-01-21 03:00:00,0.7,100.0,0.1520,1.61,200
2003-01-21 04:00:00,0.4,291.6,0.2180,1.59,312
2003-01-21 05:00:00,0.6,148.0,0.1590,1.26,447
2003-01-21 06:00:00,1.0,1.5,0.2150,2.45,556
2003-01-21 07:00:00,1.1,3.1,0.1250,2.23,657
2003-01-21 08:00:00,1.4,2.4,0.1360,2.87,732
2003-01-21 09:00:00,2.3,347.6,0.0740,4.26,825
2003-01-21 10:00:00,1.3,358.3,0.1180,3.25,957
2003-01-21 11:00:00,2.7,343.5,0.0560,4.50,1006
2003-01-21 12:00:00,1.9,346.1,0.0930,3.65,1200
2003-01-21 13:00:00,1.6,15.8,0.1220,4.23,1201
2003-01-21 14:00:00,2.4,339.3,0.0620,4.63,1353
2003-01-21 15:00:00,2.7,351.3,0.0560,6.05,1411
2003-01-21 16:00:00,1.6,31.0,0.0960,3.14,1505
2003-01-21 17:00:00,1.4,327.0,0.0430,2.87,1648
2003-01-21 18:00:00,1.2,324.0,0.0290,2.23,1732
2003-01-21 19:00:00,1.4,347.1,0.0200,2.85,1829
2003-01-21 20:00:00,1.1,158.1,0.1470,3.40,1919
2003-01-21 21:00:00,0.4,144.9,0.0500,1.69,2100
2003-01-21 22:00:00,1.0,353.2,0.0640,2.72,2148
2003-01-21 23:00:00,1.4,82.4,0.1740,3.14,2224
2003-01-22 00:00:00,2.3,134.0,0.1100,5.00,2333
2003-01-22 01:00:00,3.3,143.1,0.0980,11.22,53
2003-01-22 02:00:00,7.6,313.4,0.0070,12.54,120
2003-01-22 03:00:00,4.1,294.1,0.1850,8.58,202
2003-01-22 04:00:00,3.1,276.9,0.2040,8.84,345
2003-01-22 05:00:00,4.6,308.5,0.1100,12.98,431
2003-01-22 06:00:00,4.8,321.4,0.0480,9.58,509
2003-01-22 07:00:00,4.6,347.1,0.0850,7.48,603
2003-01-22 08:00:00,2.1,11.3,0.1160,5.20,703
2003-01-22 09:00:00,4.3,311.5,0.0400,8.94,819